BCS21SB LICJ-LIML

Flight info

Callsign BCS21SB
Flight time 1h 17m
Altitude 34000
Route GIANO DCT POKAV DCT KARDU DCT EMBOS DCT GIPIX DCT KALMO
Aircraft A306/H-SDE3FGHIRWY/LB1

Departure

Time 2026-05-05 15:34
Airport Falcone–Borsellino Airport (LICJ)

Arrival

Time 2026-05-05 16:52
Airport Milano Linate Airport (LIML)
Time Latitude Longitude Altitude Speed Heading
2026-05-05 15:02 38.18635 13.10846 59 ft 0 kts 247°
2026-05-05 15:21 38.18639 13.10857 53 ft 3 kts 248°
2026-05-05 15:22 38.18646 13.10882 54 ft 2 kts 243°
2026-05-05 15:22 38.18652 13.10894 51 ft 2 kts 211°
2026-05-05 15:22 38.18666 13.10901 52 ft 2 kts 197°
2026-05-05 15:22 38.18660 13.10903 51 ft 1 kts 176°
2026-05-05 15:23 38.18647 13.10907 54 ft 3 kts 162°
2026-05-05 15:23 38.18628 13.10918 55 ft 3 kts 153°
2026-05-05 15:23 38.18606 13.10932 53 ft 3 kts 151°
2026-05-05 15:23 38.18592 13.10942 51 ft 2 kts 152°
2026-05-05 15:24 38.18582 13.10949 53 ft 1 kts 153°
2026-05-05 15:24 38.18573 13.10954 55 ft 1 kts 155°
2026-05-05 15:24 38.18568 13.10957 55 ft 0 kts 156°
2026-05-05 15:26 38.18555 13.10964 54 ft 6 kts 156°
2026-05-05 15:26 38.18519 13.10982 53 ft 2 kts 168°
2026-05-05 15:26 38.18490 13.10955 51 ft 8 kts 230°
2026-05-05 15:26 38.18445 13.10940 56 ft 6 kts 165°
2026-05-05 15:27 38.18412 13.10934 54 ft 5 kts 213°
2026-05-05 15:27 38.18381 13.10862 54 ft 14 kts 246°
2026-05-05 15:27 38.18332 13.10721 52 ft 22 kts 246°
2026-05-05 15:27 38.18261 13.10513 55 ft 29 kts 247°
2026-05-05 15:28 38.18184 13.10270 56 ft 30 kts 246°
2026-05-05 15:28 38.18099 13.10022 53 ft 30 kts 246°
2026-05-05 15:28 38.18018 13.09779 54 ft 29 kts 247°
2026-05-05 15:28 38.17941 13.09547 53 ft 28 kts 247°
2026-05-05 15:29 38.17865 13.09326 55 ft 27 kts 247°
2026-05-05 15:29 38.17796 13.09120 56 ft 20 kts 247°
2026-05-05 15:29 38.17755 13.08996 52 ft 13 kts 247°
2026-05-05 15:29 38.17703 13.08912 58 ft 12 kts 214°
2026-05-05 15:30 38.17651 13.08865 59 ft 4 kts 215°
2026-05-05 15:30 38.17648 13.08863 59 ft 0 kts 215°
2026-05-05 15:31 38.17644 13.08859 59 ft 4 kts 215°
2026-05-05 15:31 38.17599 13.08819 52 ft 12 kts 215°
2026-05-05 15:31 38.17529 13.08756 54 ft 12 kts 214°
2026-05-05 15:31 38.17483 13.08764 52 ft 5 kts 137°
2026-05-05 15:32 38.17481 13.08788 51 ft 2 kts 80°
2026-05-05 15:32 38.17484 13.08802 51 ft 1 kts 72°
2026-05-05 15:32 38.17485 13.08806 55 ft 0 kts 71°
2026-05-05 15:34 38.17561 13.09038 53 ft 64 kts 66°
2026-05-05 15:34 38.17831 13.09830 55 ft 129 kts 67°
2026-05-05 15:34 38.18223 13.11040 412 ft 156 kts 67°
2026-05-05 15:34 38.18624 13.12306 1419 ft 153 kts 70°
2026-05-05 15:35 38.19052 13.13608 2126 ft 172 kts 68°
2026-05-05 15:35 38.19571 13.15116 2618 ft 197 kts 68°
2026-05-05 15:35 38.20143 13.16780 3264 ft 218 kts 68°
2026-05-05 15:35 38.20843 13.18663 3632 ft 251 kts 59°
2026-05-05 15:36 38.22117 13.20222 4334 ft 267 kts 31°
2026-05-05 15:36 38.23818 13.21229 5266 ft 273 kts 23°
2026-05-05 15:36 38.25600 13.22146 6205 ft 279 kts 21°
2026-05-05 15:36 38.27421 13.23082 7116 ft 285 kts 21°
2026-05-05 15:37 38.29273 13.24046 8058 ft 290 kts 21°
2026-05-05 15:37 38.31156 13.25035 9039 ft 295 kts 20°
2026-05-05 15:37 38.33071 13.26047 9961 ft 301 kts 20°
2026-05-05 15:37 38.35029 13.27086 10767 ft 307 kts 20°
2026-05-05 15:38 38.37021 13.28134 11576 ft 312 kts 18°
2026-05-05 15:38 38.39123 13.28778 12391 ft 311 kts 359°
2026-05-05 15:38 38.41241 13.28446 13184 ft 306 kts 337°
2026-05-05 15:38 38.43119 13.27131 13621 ft 314 kts 314°
2026-05-05 15:39 38.44563 13.24982 13933 ft 327 kts 301°
2026-05-05 15:39 38.45871 13.22514 14199 ft 345 kts 300°
2026-05-05 15:39 38.47228 13.19901 14449 ft 362 kts 300°
2026-05-05 15:39 38.48657 13.17175 14718 ft 377 kts 301°
2026-05-05 15:40 38.50144 13.14367 15200 ft 385 kts 301°
2026-05-05 15:40 38.51658 13.11522 15727 ft 390 kts 301°
2026-05-05 15:40 38.53188 13.08651 16090 ft 392 kts 301°
2026-05-05 15:40 38.54730 13.05755 16568 ft 397 kts 301°
2026-05-05 15:41 38.56290 13.02824 17157 ft 401 kts 301°
2026-05-05 15:41 38.57865 12.99863 17714 ft 405 kts 301°
2026-05-05 15:41 38.59459 12.96863 18228 ft 410 kts 301°
2026-05-05 15:41 38.61070 12.93830 18680 ft 414 kts 301°
2026-05-05 15:42 38.62694 12.90770 19136 ft 417 kts 301°
2026-05-05 15:42 38.64327 12.87690 19606 ft 420 kts 302°
2026-05-05 15:42 38.65946 12.84632 20079 ft 422 kts 301°
2026-05-05 15:42 38.67596 12.81513 20564 ft 424 kts 301°
2026-05-05 15:43 38.69242 12.78400 21304 ft 420 kts 301°
2026-05-05 15:43 38.70872 12.75315 21955 ft 419 kts 301°
2026-05-05 15:43 38.72504 12.72222 22520 ft 420 kts 301°
2026-05-05 15:43 38.74141 12.69113 23029 ft 422 kts 301°
2026-05-05 15:44 38.75789 12.65984 23526 ft 424 kts 301°
2026-05-05 15:44 38.77442 12.62840 23943 ft 426 kts 301°
2026-05-05 15:44 38.79100 12.59684 24340 ft 428 kts 301°
2026-05-05 15:44 38.80767 12.56509 24735 ft 430 kts 301°
2026-05-05 15:45 38.82440 12.53318 25121 ft 432 kts 301°
2026-05-05 15:45 38.84153 12.50148 25494 ft 434 kts 304°
2026-05-05 15:45 38.86138 12.47200 25858 ft 439 kts 312°
2026-05-05 15:45 38.88486 12.44659 26228 ft 445 kts 321°
2026-05-05 15:46 38.91170 12.42620 26572 ft 452 kts 329°
2026-05-05 15:46 38.94034 12.40923 26911 ft 455 kts 332°
2026-05-05 15:46 38.96969 12.39361 27230 ft 458 kts 334°
2026-05-05 15:46 38.99941 12.37859 27545 ft 460 kts 334°
2026-05-05 15:47 39.02934 12.36368 27843 ft 462 kts 334°
2026-05-05 15:47 39.04922 12.35374 28048 ft 463 kts 334°
2026-05-05 15:47 39.08939 12.33343 28519 ft 464 kts 334°
2026-05-05 15:47 39.11932 12.31810 28981 ft 462 kts 333°
2026-05-05 15:48 39.14905 12.30275 29443 ft 460 kts 333°
2026-05-05 15:48 39.17868 12.28737 29913 ft 458 kts 333°
2026-05-05 15:48 39.20818 12.27200 30318 ft 457 kts 333°
2026-05-05 15:48 39.23763 12.25663 30687 ft 456 kts 333°
2026-05-05 15:49 39.26700 12.24130 31047 ft 455 kts 333°
2026-05-05 15:49 39.29627 12.22600 31414 ft 454 kts 333°
2026-05-05 15:49 39.32548 12.21072 31782 ft 453 kts 333°
2026-05-05 15:49 39.35464 12.19547 32167 ft 451 kts 333°
2026-05-05 15:50 39.38368 12.18027 32564 ft 449 kts 333°
2026-05-05 15:50 39.41262 12.16511 32944 ft 448 kts 333°
2026-05-05 15:50 39.44149 12.14996 33330 ft 446 kts 333°
2026-05-05 15:50 39.47019 12.13491 33740 ft 445 kts 332°
2026-05-05 15:51 39.49886 12.11984 33993 ft 445 kts 332°
2026-05-05 15:51 39.55528 12.09023 34032 ft 429 kts 332°
2026-05-05 15:52 39.60990 12.06146 34027 ft 426 kts 332°
2026-05-05 15:52 39.66482 12.03239 34028 ft 426 kts 332°
2026-05-05 15:53 39.71980 12.00326 34028 ft 427 kts 332°
2026-05-05 15:53 39.76556 11.97901 34032 ft 428 kts 331°
2026-05-05 15:54 39.82076 11.94973 34036 ft 429 kts 331°
2026-05-05 15:54 39.87612 11.92031 34032 ft 430 kts 331°
2026-05-05 15:55 39.93153 11.89082 34032 ft 430 kts 331°
2026-05-05 15:55 39.98694 11.86127 34032 ft 431 kts 331°
2026-05-05 15:56 40.04246 11.83162 34036 ft 431 kts 331°
2026-05-05 15:56 40.09793 11.80193 34029 ft 431 kts 331°
2026-05-05 15:57 40.15347 11.77216 34031 ft 431 kts 331°
2026-05-05 15:57 40.20892 11.74238 34032 ft 431 kts 331°
2026-05-05 15:58 40.26392 11.71279 34033 ft 430 kts 331°
2026-05-05 15:58 40.31922 11.68299 34026 ft 430 kts 331°
2026-05-05 15:59 40.37447 11.65316 34030 ft 429 kts 331°
2026-05-05 15:59 40.42966 11.62330 34028 ft 429 kts 331°
2026-05-05 16:00 40.48485 11.59339 34025 ft 429 kts 331°
2026-05-05 16:00 40.54007 11.56341 34028 ft 429 kts 331°
2026-05-05 16:01 40.59533 11.53337 34025 ft 430 kts 330°
2026-05-05 16:01 40.65056 11.50327 34026 ft 430 kts 330°
2026-05-05 16:02 40.70585 11.47309 34022 ft 430 kts 330°
2026-05-05 16:02 40.76119 11.44285 34018 ft 430 kts 330°
2026-05-05 16:03 40.81650 11.41256 34017 ft 430 kts 330°
2026-05-05 16:03 40.87349 11.38631 34022 ft 435 kts 335°
2026-05-05 16:04 40.93104 11.36279 34019 ft 436 kts 335°
2026-05-05 16:04 40.98913 11.33955 34019 ft 436 kts 335°
2026-05-05 16:05 41.04721 11.31626 34011 ft 436 kts 335°
2026-05-05 16:05 41.10524 11.29285 34009 ft 436 kts 335°
2026-05-05 16:06 41.16319 11.26939 34016 ft 435 kts 335°
2026-05-05 16:06 41.22116 11.24587 34010 ft 436 kts 335°
2026-05-05 16:07 41.27913 11.22230 34014 ft 436 kts 335°
2026-05-05 16:07 41.33708 11.19870 34011 ft 436 kts 335°
2026-05-05 16:08 41.39503 11.17507 34006 ft 436 kts 335°
2026-05-05 16:08 41.45298 11.15139 34004 ft 436 kts 335°
2026-05-05 16:09 41.51091 11.12766 34002 ft 436 kts 334°
2026-05-05 16:09 41.56888 11.10389 34007 ft 436 kts 334°
2026-05-05 16:10 41.62684 11.08006 34006 ft 436 kts 334°
2026-05-05 16:10 41.68483 11.05618 34001 ft 436 kts 334°
2026-05-05 16:11 41.74276 11.03228 33998 ft 436 kts 334°
2026-05-05 16:12 41.85848 10.98442 33997 ft 435 kts 334°
2026-05-05 16:13 42.00273 10.92448 33990 ft 435 kts 334°
2026-05-05 16:13 42.06058 10.90037 33991 ft 435 kts 334°
2026-05-05 16:14 42.17631 10.85198 33990 ft 436 kts 334°
2026-05-05 16:15 42.29228 10.80331 33988 ft 437 kts 334°
2026-05-05 16:16 42.40838 10.75441 33986 ft 437 kts 334°
2026-05-05 16:17 42.49547 10.71760 33981 ft 437 kts 334°
2026-05-05 16:18 42.58246 10.68073 33981 ft 432 kts 334°
2026-05-05 16:19 42.66698 10.64494 33985 ft 421 kts 334°
2026-05-05 16:19 42.75075 10.60910 33985 ft 421 kts 334°
2026-05-05 16:20 42.86238 10.56130 33980 ft 420 kts 334°
2026-05-05 16:22 43.00271 10.50520 33982 ft 427 kts 339°
2026-05-05 16:23 43.11958 10.47389 33983 ft 429 kts 340°
2026-05-05 16:23 43.20751 10.45093 33982 ft 429 kts 340°
2026-05-05 16:24 43.26622 10.43544 33983 ft 430 kts 340°
2026-05-05 16:25 43.35426 10.41210 33973 ft 430 kts 340°
2026-05-05 16:25 43.44201 10.38877 33993 ft 430 kts 340°
2026-05-05 16:26 43.55946 10.35745 33996 ft 430 kts 340°
2026-05-05 16:27 43.61822 10.34173 33998 ft 430 kts 340°
2026-05-05 16:27 43.67697 10.32598 34003 ft 430 kts 340°
2026-05-05 16:28 43.73578 10.31017 33995 ft 433 kts 340°
2026-05-05 16:28 43.79595 10.29383 33992 ft 448 kts 340°
2026-05-05 16:29 43.82633 10.28408 33873 ft 445 kts 335°
2026-05-05 16:29 43.85504 10.26919 33096 ft 440 kts 329°
2026-05-05 16:29 43.88259 10.25207 32238 ft 439 kts 328°
2026-05-05 16:29 43.91016 10.23370 31341 ft 441 kts 327°
2026-05-05 16:30 43.93772 10.21468 30414 ft 444 kts 327°
2026-05-05 16:30 43.96535 10.19539 29342 ft 445 kts 327°
2026-05-05 16:30 43.99316 10.17599 28430 ft 446 kts 328°
2026-05-05 16:30 44.02068 10.15696 27943 ft 438 kts 328°
2026-05-05 16:31 44.04683 10.13627 27229 ft 429 kts 320°
2026-05-05 16:31 44.06902 10.10924 26355 ft 422 kts 308°
2026-05-05 16:31 44.08706 10.07716 25388 ft 422 kts 301°
2026-05-05 16:31 44.10380 10.04353 24528 ft 423 kts 300°
2026-05-05 16:32 44.12024 10.00984 23861 ft 419 kts 300°
2026-05-05 16:32 44.13654 9.97635 23050 ft 417 kts 300°
2026-05-05 16:32 44.15279 9.94297 22182 ft 415 kts 301°
2026-05-05 16:32 44.16893 9.90982 21422 ft 412 kts 300°
2026-05-05 16:33 44.18493 9.87694 20699 ft 408 kts 300°
2026-05-05 16:33 44.20081 9.84426 19993 ft 405 kts 300°
2026-05-05 16:33 44.21652 9.81188 19306 ft 402 kts 300°
2026-05-05 16:33 44.23217 9.77965 18658 ft 400 kts 300°
2026-05-05 16:34 44.24764 9.74773 18021 ft 396 kts 300°
2026-05-05 16:34 44.26298 9.71602 17378 ft 392 kts 301°
2026-05-05 16:34 44.27813 9.68466 16743 ft 388 kts 301°
2026-05-05 16:34 44.29310 9.65365 16104 ft 384 kts 301°
2026-05-05 16:35 44.30792 9.62296 15534 ft 378 kts 301°
2026-05-05 16:35 44.32453 9.59502 15062 ft 374 kts 314°
2026-05-05 16:35 44.34569 9.57380 14502 ft 375 kts 325°
2026-05-05 16:35 44.36803 9.55540 13953 ft 371 kts 327°
2026-05-05 16:36 44.39036 9.53742 13350 ft 369 kts 327°
2026-05-05 16:36 44.41235 9.51961 12910 ft 362 kts 327°
2026-05-05 16:36 44.43392 9.50201 12441 ft 356 kts 327°
2026-05-05 16:36 44.45523 9.48454 11889 ft 354 kts 327°
2026-05-05 16:37 44.47621 9.46731 11583 ft 344 kts 327°
2026-05-05 16:37 44.49646 9.45067 11416 ft 332 kts 327°
2026-05-05 16:37 44.51600 9.43457 11243 ft 320 kts 327°
2026-05-05 16:37 44.53485 9.41896 11090 ft 310 kts 326°
2026-05-05 16:38 44.55324 9.40371 10808 ft 305 kts 327°
2026-05-05 16:38 44.57141 9.38865 10464 ft 303 kts 327°
2026-05-05 16:38 44.58981 9.37416 10101 ft 302 kts 333°
2026-05-05 16:38 44.60998 9.36604 9977 ft 304 kts 350°
2026-05-05 16:39 44.63107 9.36312 9961 ft 306 kts 354°
2026-05-05 16:39 44.65235 9.36106 9962 ft 307 kts 355°
2026-05-05 16:39 44.67366 9.35908 9959 ft 307 kts 355°
2026-05-05 16:39 44.69498 9.35702 9973 ft 307 kts 355°
2026-05-05 16:40 44.71630 9.35479 9960 ft 307 kts 354°
2026-05-05 16:40 44.73760 9.35253 9965 ft 307 kts 354°
2026-05-05 16:40 44.75896 9.35024 9976 ft 309 kts 354°
2026-05-05 16:40 44.78059 9.34791 9598 ft 315 kts 354°
2026-05-05 16:41 44.80260 9.34559 9164 ft 315 kts 355°
2026-05-05 16:41 44.82379 9.34337 9024 ft 304 kts 355°
2026-05-05 16:41 44.84451 9.34119 8841 ft 294 kts 355°
2026-05-05 16:41 44.86475 9.33905 8563 ft 289 kts 355°
2026-05-05 16:42 44.88473 9.33695 8266 ft 287 kts 354°
2026-05-05 16:42 44.90454 9.33486 7987 ft 284 kts 355°
2026-05-05 16:42 44.92408 9.33280 7700 ft 281 kts 355°
2026-05-05 16:42 44.94358 9.33070 7415 ft 281 kts 355°
2026-05-05 16:43 44.96294 9.32863 7114 ft 278 kts 355°
2026-05-05 16:43 44.97569 9.32729 6903 ft 277 kts 355°
2026-05-05 16:43 44.99476 9.32527 6613 ft 273 kts 355°
2026-05-05 16:43 45.01356 9.32327 6353 ft 268 kts 355°
2026-05-05 16:44 45.03199 9.32131 6111 ft 263 kts 355°
2026-05-05 16:44 45.05009 9.31938 5878 ft 258 kts 355°
2026-05-05 16:44 45.06774 9.31752 5695 ft 251 kts 355°
2026-05-05 16:44 45.08501 9.31569 5495 ft 246 kts 355°
2026-05-05 16:45 45.10189 9.31388 5291 ft 241 kts 355°
2026-05-05 16:45 45.11847 9.31209 5121 ft 235 kts 355°
2026-05-05 16:45 45.13443 9.31042 5007 ft 225 kts 355°
2026-05-05 16:45 45.14976 9.30893 4869 ft 216 kts 355°
2026-05-05 16:46 45.16436 9.30739 4767 ft 206 kts 354°
2026-05-05 16:46 45.17842 9.30587 4569 ft 200 kts 354°
2026-05-05 16:46 45.19216 9.30435 4344 ft 196 kts 354°
2026-05-05 16:46 45.20569 9.30284 4112 ft 194 kts 354°
2026-05-05 16:47 45.21908 9.30136 3889 ft 191 kts 354°
2026-05-05 16:47 45.23206 9.29995 3761 ft 183 kts 353°
2026-05-05 16:47 45.24455 9.29860 3585 ft 177 kts 353°
2026-05-05 16:47 45.25668 9.29731 3403 ft 173 kts 353°
2026-05-05 16:48 45.26860 9.29604 3165 ft 171 kts 353°
2026-05-05 16:48 45.28042 9.29478 3015 ft 170 kts 353°
2026-05-05 16:48 45.29219 9.29352 3003 ft 170 kts 353°
2026-05-05 16:48 45.30394 9.29225 2867 ft 169 kts 353°
2026-05-05 16:49 45.31565 9.29099 2635 ft 169 kts 352°
2026-05-05 16:49 45.32731 9.28974 2407 ft 167 kts 353°
2026-05-05 16:49 45.33866 9.28853 2171 ft 159 kts 352°
2026-05-05 16:49 45.34928 9.28738 1997 ft 149 kts 352°
2026-05-05 16:50 45.35925 9.28630 1799 ft 138 kts 352°
2026-05-05 16:50 45.36862 9.28528 1615 ft 134 kts 353°
2026-05-05 16:50 45.37801 9.28429 1410 ft 136 kts 352°
2026-05-05 16:50 45.38740 9.28327 1241 ft 137 kts 353°
2026-05-05 16:51 45.39696 9.28224 1075 ft 139 kts 354°
2026-05-05 16:51 45.40674 9.28119 910 ft 144 kts 356°
2026-05-05 16:51 45.41690 9.28009 705 ft 149 kts 357°
2026-05-05 16:51 45.42704 9.27879 538 ft 142 kts 358°
2026-05-05 16:52 45.43675 9.27785 387 ft 137 kts 359°
2026-05-05 16:52 45.44516 9.27714 368 ft 93 kts 355°
2026-05-05 16:52 45.44919 9.27670 371 ft 44 kts 355°
2026-05-05 16:52 45.45212 9.27641 367 ft 41 kts
2026-05-05 16:53 45.45439 9.27777 368 ft 31 kts 31°
2026-05-05 16:53 45.45558 9.27818 366 ft 12 kts 360°
2026-05-05 16:53 45.45629 9.27817 366 ft 9 kts 360°
2026-05-05 16:53 45.45652 9.27817 370 ft 0 kts 360°
2026-05-05 16:54 45.45679 9.27825 370 ft 4 kts 41°
2026-05-05 16:54 45.45692 9.27861 368 ft 3 kts 75°
2026-05-05 16:54 45.45692 9.27885 371 ft 2 kts 91°
2026-05-05 16:55 45.45692 9.27887 367 ft 0 kts 91°